Richmond Hanover County, VA

9:54 PM EDT on August 17, 2017 (GMT -0400)
Hanover County Municipal

Weather History for KOFP - June, 2013

Change the Weather History Date:

Wednesday, June 19, 2013

  Actual Average Record
Temperature  
Mean Temperature 68 °F -  
Max Temperature 78 °F 83 °F 98 °F (2007)
Min Temperature 62 °F 63 °F 47 °F (1954)
Cooling Degree Days 4    
Growing Degree Days 18 (Base 50)    
Moisture  
Dew Point 64 °F    
Average Humidity 93    
Maximum Humidity 100    
Minimum Humidity 64    
Precipitation  
Precipitation 0.00 in - - ()
Sea Level Pressure  
Sea Level Pressure 29.97 in    
Wind  
Wind Speed 1 mph (NNE)    
Max Wind Speed 6 mph    
Max Gust Speed -    
Visibility 4 miles    
Events Fog    
Averages and records for this station are not official NWS values.
T = Trace of Precipitation, MM = Missing Value Source: NWS Daily Summary

Daily Weather History Graph

Daily Weather History Graph

Search for Another Location

Airport or City:

Trip Planner

Search our weather history database for the weather conditions in past years. The results will help you decide how hot, cold, wet, or windy it might be!

Date:

Astronomy

Jun. 19, 2013 Rise Set
Actual Time 5:47 AM EDT 8:34 PM EDT
Civil Twilight 5:16 AM EDT 9:05 PM EDT
Nautical Twilight 4:37 AM EDT 9:44 PM EDT
Astronomical Twilight 3:53 AM EDT 10:29 PM EDT
Moon 4:27 PM EDT (6/19) 2:27 AM EDT (6/19)
Length of Visible Light 15h 49m
Length of Day
14h 46m
Waxing Gibbous, 80% of the Moon is Illuminated
Jun 19
Waxing Gibbous
Jun 23
Full
Jun 30
Last Quarter
Jul 8
New
Jul 15
First Quarter

Hourly Weather History & Observations

Time (EDT) Temp. Dew Point Humidity Pressure Visibility Wind Dir Wind Speed Gust Speed Precip Events Conditions
12:01 AM 64.4 °F 64.4 °F 100% 29.91 in 5.0 mi Calm Calm - N/A   Clear
12:10 AM 64.4 °F 62.6 °F 94% 29.91 in 1.5 mi Calm Calm - N/A   Clear
12:13 AM 62.6 °F 62.6 °F 100% 29.91 in 0.8 mi Calm Calm - N/A   Clear
12:23 AM 62.6 °F 62.6 °F 100% 29.91 in 0.5 mi Calm Calm - N/A Fog Fog
12:44 AM 64.4 °F 62.6 °F 94% 29.91 in 1.2 mi Calm Calm - N/A   Partly Cloudy
12:46 AM 64.4 °F 62.6 °F 94% 29.91 in 2.0 mi Calm Calm - N/A   Partly Cloudy
12:54 AM 63.0 °F 63.0 °F 100% 29.90 in 4.0 mi Calm Calm - N/A   Partly Cloudy
1:05 AM 62.6 °F 62.6 °F 100% 29.90 in 1.8 mi Calm Calm - N/A   Clear
1:08 AM 62.6 °F 62.6 °F 100% 29.90 in 0.8 mi Calm Calm - N/A   Clear
1:17 AM 62.6 °F 62.6 °F 100% 29.90 in 0.8 mi Calm Calm - N/A   Mist
1:21 AM 62.6 °F 62.6 °F 100% 29.90 in 1.5 mi Calm Calm - N/A   Partly Cloudy
1:26 AM 64.4 °F 64.4 °F 100% 29.90 in 3.0 mi Calm Calm - N/A   Partly Cloudy
1:39 AM 64.4 °F 64.4 °F 100% 29.90 in 2.5 mi Calm Calm - N/A   Clear
1:47 AM 64.4 °F 64.4 °F 100% 29.90 in 5.0 mi Calm Calm - N/A   Clear
1:54 AM 64.0 °F 64.0 °F 100% 29.89 in 5.0 mi Calm Calm - N/A   Clear
2:03 AM 64.4 °F 64.4 °F 100% 29.89 in 5.0 mi Calm Calm - N/A   Scattered Clouds
2:15 AM 64.4 °F 64.4 °F 100% 29.90 in 4.0 mi Calm Calm - N/A   Mostly Cloudy
2:28 AM 64.4 °F 64.4 °F 100% 29.90 in 2.5 mi Calm Calm - N/A   Overcast
2:35 AM 64.4 °F 64.4 °F 100% 29.90 in 4.0 mi Calm Calm - N/A   Mostly Cloudy
2:50 AM 64.4 °F 64.4 °F 100% 29.90 in 1.8 mi Calm Calm - N/A   Mostly Cloudy
2:54 AM 63.0 °F 63.0 °F 100% 29.89 in 1.0 mi Calm Calm - N/A   Mostly Cloudy
3:01 AM 64.4 °F 64.4 °F 100% 29.90 in 0.5 mi Calm Calm - N/A Fog Fog
3:10 AM 64.4 °F 64.4 °F 100% 29.90 in 1.5 mi Calm Calm - N/A   Overcast
3:20 AM 64.4 °F 64.4 °F 100% 29.90 in 0.8 mi NW 3.5 mph - N/A   Overcast
3:40 AM 64.4 °F 64.4 °F 100% 29.90 in 1.5 mi Calm Calm - N/A   Overcast
3:45 AM 64.4 °F 64.4 °F 100% 29.91 in 3.0 mi Calm Calm - N/A   Overcast
3:54 AM 64.0 °F 64.0 °F 100% 29.91 in 4.0 mi North 3.5 mph - N/A   Mostly Cloudy
4:11 AM 64.4 °F 64.4 °F 100% 29.91 in 5.0 mi NNW 3.5 mph - N/A   Scattered Clouds
4:25 AM 64.4 °F 64.4 °F 100% 29.91 in 4.0 mi Calm Calm - N/A   Mostly Cloudy
4:34 AM 64.4 °F 64.4 °F 100% 29.91 in 1.8 mi Variable 4.6 mph - N/A   Mostly Cloudy
4:54 AM 64.0 °F 64.0 °F 100% 29.91 in 0.8 mi NNE 4.6 mph - N/A   Mist
5:10 AM 64.4 °F 64.4 °F 100% 29.92 in 1.5 mi NNE 5.8 mph - N/A   Overcast
5:20 AM 64.4 °F 64.4 °F 100% 29.93 in 2.5 mi Variable 3.5 mph - N/A   Overcast
5:27 AM 64.4 °F 64.4 °F 100% 29.93 in 4.0 mi Variable 3.5 mph - N/A   Overcast
5:54 AM 64.0 °F 63.0 °F 96% 29.94 in 4.0 mi Calm Calm - N/A   Mostly Cloudy
6:05 AM 64.4 °F 62.6 °F 94% 29.95 in 2.5 mi Calm Calm - N/A   Scattered Clouds
6:12 AM 62.6 °F 62.6 °F 100% 29.95 in 0.8 mi Calm Calm - N/A   Mist
6:54 AM 64.0 °F 64.0 °F 100% 29.96 in 0.8 mi Calm Calm - N/A   Mist
6:56 AM 64.4 °F 64.4 °F 100% 29.97 in 1.5 mi Calm Calm - N/A   Scattered Clouds
7:02 AM 64.4 °F 64.4 °F 100% 29.97 in 3.0 mi Calm Calm - N/A   Partly Cloudy
7:54 AM 66.9 °F 64.9 °F 93% 29.99 in 9.0 mi Calm Calm - N/A   Clear
8:54 AM 70.0 °F 64.0 °F 81% 30.02 in 10.0 mi Variable 3.5 mph - N/A   Clear
9:54 AM 72.0 °F 64.0 °F 76% 30.04 in 10.0 mi Variable 4.6 mph - N/A   Mostly Cloudy
10:08 AM 71.6 °F 64.4 °F 78% 30.05 in 10.0 mi Calm Calm - N/A   Overcast
10:32 AM 71.6 °F 64.4 °F 78% 30.06 in 10.0 mi ENE 3.5 mph - N/A   Overcast
10:54 AM 71.1 °F 64.0 °F 78% 30.06 in 10.0 mi North 4.6 mph - N/A   Overcast
11:42 AM 71.6 °F 64.4 °F 78% 30.07 in 10.0 mi Calm Calm - N/A   Overcast
11:54 AM 70.0 °F 64.0 °F 81% 30.07 in 10.0 mi Variable 3.5 mph - N/A   Overcast
12:27 PM 71.6 °F 64.4 °F 78% 30.08 in 10.0 mi North 3.5 mph - N/A   Overcast
12:52 PM 71.6 °F 62.6 °F 73% 30.09 in 10.0 mi NNE 4.6 mph - N/A   Overcast
12:54 PM 71.1 °F 63.0 °F 75% 30.09 in 10.0 mi Calm Calm - N/A   Overcast
1:54 PM 72.0 °F 64.0 °F 76% 30.09 in 10.0 mi Calm Calm - N/A   Overcast
2:54 PM 75.0 °F 64.9 °F 71% 30.09 in 10.0 mi ENE 5.8 mph - N/A   Mostly Cloudy
3:54 PM 75.0 °F 63.0 °F 66% 30.09 in 10.0 mi Variable 3.5 mph - N/A   Scattered Clouds
4:54 PM 75.9 °F 63.0 °F 64% 30.08 in 10.0 mi Calm Calm - N/A   Partly Cloudy
8:54 PM 66.9 °F 66.0 °F 97% 30.12 in 6.0 mi Calm Calm - N/A   Clear
9:54 PM 66.0 °F 64.9 °F 96% 30.14 in 5.0 mi Calm Calm - N/A   Clear
10:54 PM 64.0 °F 64.0 °F 100% 30.15 in 4.0 mi ESE 3.5 mph - N/A   Clear
11:54 PM 64.0 °F 63.0 °F 96% 30.17 in 3.0 mi Calm Calm - N/A   Clear